{"data":{"norad_id":62513,"epoch":"2026-09-21T06:06:24.124032Z","epoch_age_seconds":109189,"freshness":"FRESH","line1":"1 62513U 25004C   26264.25444588  .00434063  00000+0  32477-2 0  9992","line2":"2 62513  43.0006 332.1242 0001186 267.3792  92.6939 15.70579708 97969","mean_motion":15.70579708,"eccentricity":0.0001186,"inclination_deg":43.0006,"raan_deg":332.1242,"arg_perigee_deg":267.3792,"mean_anomaly_deg":92.6939,"bstar":0.0032477,"rev_number":9796,"period_min":91.685891054439,"perigee_km":356.44031195588,"apogee_km":358.03794317333,"semimajor_km":6735.3761275646,"source":"CELESTRAK","updated_at":"2026-09-22T09:00:49.621659Z"}}